This is the latest recevied weather packets stored in our database for station/object OK2ILA-6. If no packets are shown the sender has not sent any weather packets the latest 10 day(s).
| Time | Temp. | Humidity | Pressure | Rain* | Wind** | Luminosity | Snow |
|---|---|---|---|---|---|---|---|
| 1777252203 | 1.11° C | 77% | 1023.4 hPa | - | - | - | - |
| 1777251603 | 1.11° C | 76% | 1023.4 hPa | - | - | - | - |
| 1777251003 | 1.67° C | 76% | 1023.4 hPa | - | - | - | - |
| 1777250403 | 1.67° C | 76% | 1023.6 hPa | - | - | - | - |
| 1777249802 | 2.22° C | 76% | 1023.4 hPa | - | - | - | - |
| 1777249203 | 1.67° C | 77% | 1023.4 hPa | - | - | - | - |
| 1777248603 | 2.22° C | 76% | 1023.5 hPa | - | - | - | - |
| 1777248003 | 2.22° C | 76% | 1023.4 hPa | - | - | - | - |
| 1777247403 | 2.22° C | 75% | 1023.5 hPa | - | - | - | - |
| 1777246803 | 2.22° C | 75% | 1023.4 hPa | - | - | - | - |
| 1777246203 | 2.22° C | 75% | 1023.7 hPa | - | - | - | - |
| 1777245603 | 2.22° C | 75% | 1023.6 hPa | - | - | - | - |
| 1777245003 | 2.22° C | 74% | 1023.6 hPa | - | - | - | - |
| 1777244403 | 2.78° C | 74% | 1023.6 hPa | - | - | - | - |
| 1777243802 | 2.78° C | 74% | 1023.5 hPa | - | - | - | - |
| 1777243203 | 3.33° C | 73% | 1023.4 hPa | - | - | - | - |
| 1777242603 | 3.33° C | 73% | 1023.4 hPa | - | - | - | - |
| 1777242003 | 3.33° C | 72% | 1023.4 hPa | - | - | - | - |
| 1777241403 | 3.33° C | 72% | 1023.4 hPa | - | - | - | - |
| 1777240802 | 3.33° C | 71% | 1023.4 hPa | - | - | - | - |
| 1777240203 | 3.33° C | 70% | 1023.3 hPa | - | - | - | - |
| 1777239603 | 3.89° C | 70% | 1023.4 hPa | - | - | - | - |
| 1777239003 | 4.44° C | 70% | 1023.4 hPa | - | - | - | - |
| 1777238403 | 4.44° C | 70% | 1023.4 hPa | - | - | - | - |
| 1777237802 | 4.44° C | 70% | 1023.5 hPa | - | - | - | - |
* Rain since midnight (hover to see other rain measurements)
** Current wind speed in m/s (hover to see current wind gust speed)